RH
91 84 87 94 95 92 95 66 67 67 60 57 54 45 36 38 35 36 50 70 72 59 38 34 30 28 25 27 27 24 17 13 17 18 20 22 24 22 21 22 20 19 20 25 29
71 80 90 95 95 86 80 62 64 56 52 46 45 35 31 30 24 28 54 69 56 35 30 28 23 21 24 27 24 23 18 19 24 23 22 23 26 24 25 21 20 20 22 25 25
81 80 92 88 92 90 89 62 56 50 47 41 36 34 33 31 23 26 34 34 32 32 31 29 23 20 24 23 25 24 21 26 28 30 28 26 28 25 26 26 21 19 18 24 26
78 82 92 92 94 94 76 58 52 48 45 42 39 31 28 35 26 30 34 31 31 30 29 26 20 20 22 23 23 27 27 27 31 29 27 27 28 26 25 24 22 21 20 22 23
91 94 86 82 85 87 65 54 49 47 45 42 36 30 30 25 31 35 36 34 32 30 27 23 20 21 21 22 21 24 26 26 25 26 24 24 26 26 26 21 19 20 20 21 20
82 77 78 69 59 53 50 48 44 42 42 40 35 31 25 29 35 35 36 33 34 28 27 24 24 21 23 24 25 24 26 24 23 23 22 25 20 23 17 17 18 19 20 18 19
67 53 47 46 43 41 40 39 37 36 33 30 30 28 29 37 34 32 33 33 35 31 28 30 28 22 21 25 23 21 21 20 21 21 20 23 18 19 14 15 20 17 16 17 17
52 49 45 43 39 37 35 36 32 30 25 23 28 27 33 34 33 30 31 27 29 33 32 34 28 26 24 22 19 18 20 18 22 22 22 23 15 9 15 17 18 16 15 15 16
56 48 39 37 36 36 34 30 27 24 22 22 26 23 29 30 30 32 34 30 25 27 27 25 24 26 24 26 22 18 19 16 16 23 24 23 20 12 13 16 17 16 14 14 13
55 46 37 34 34 34 32 33 27 30 28 28 26 24 28 32 34 34 33 32 24 22 24 23 21 27 24 66 60 26 16 14 16 16 27 26 21 15 12 13 14 15 14 14 13
42 38 36 33 30 30 33 32 26 24 31 37 33 29 31 33 30 30 34 30 19 20 29 23 34 43 31 30 26 24 28 26 18 21 36 25 24 20 17 16 17 17 16 15 14
36 35 31 28 27 28 38 36 55 36 29 27 26 30 33 35 28 30 31 21 18 24 22 34 39 34 37 37 37 32 30 25 28 34 36 30 33 22 15 16 16 18 21 22 23
31 32 26 25 26 39 44 54 44 43 21 24 30 30 33 29 33 35 32 28 26 27 29 38 39 37 38 38 39 38 39 42 49 43 31 36 20 16 18 17 17 17 18 20 28
24 22 24 25 31 44 47 49 42 34 46 25 26 28 26 28 32 32 36 34 30 32 35 39 37 39 40 40 42 67 45 47 52 66 50 37 53 23 17 17 18 20 23 29 35
26 24 22 19 40 40 60 42 43 43 99 25 30 27 26 31 35 29 35 29 34 37 37 47 40 40 42 47 44 49 52 54 62 79 84 45 69 25 16 21 23 23 24 31 36
26 24 25 36 44 51 46 47 44 84 64 48 29 32 27 28 31 28 28 31 35 35 34 41 40 41 47 49 51 49 55 53 61 66 94 50 45 33 21 26 27 27 25 28 31
28 24 22 33 46 47 44 42 93 78 23 45 41 33 36 32 28 32 32 37 42 64 72 38 45 43 44 50 49 56 96 99 92 98 54 63 58 31 23 26 30 32 28 29 26
28 26 33 38 46 47 48 38 88 23 26 36 37 35 37 38 35 36 32 37 33 40 38 51 70 71 50 56 67 73 96 94 56 60 49 66 74 48 25 27 28 29 28 27 26
30 38 55 51 49 46 29 98 29 30 28 38 32 78 32 36 43 66 35 40 42 36 46 36 49 49 54 54 64 78 96 61 94 77 68 52 49 31 27 25 30 34 32 32 32
42 35 49 41 40 46 37 41 36 37 35 35 32 30 69 45 79 43 51 38 42 41 37 46 67 38 58 57 59 72 55 90 92 70 55 37 29 90 74 62 43 40 30 24 24
44 29 44 42 38 31 73 42 39 39 44 39 28 28 26 36 38 38 49 43 39 44 38 38 44 48 47 57 64 71 79 80 79 62 74 53 70 86 100 84 54 43 32 29 29
38 48 42 36 51 38 44 37 41 44 46 41 36 31 26 31 39 53 47 46 36 38 38 41 43 48 33 45 46 51 62 47 60 71 64 70 77 38 54 43 37 34 31 32 34
31 32 42 51 67 37 45 46 39 40 38 40 36 37 35 32 37 34 40 41 38 40 37 40 43 46 43 48 46 54 52 46 44 52 72 60 83 34 33 34 37 39 38 37 33
40 76 42 32 33 27 31 38 45 50 45 41 38 40 39 39 37 36 36 49 45 42 50 46 41 40 32 29 34 48 46 50 49 74 54 74 78 45 51 72 53 47 39 35 33
46 55 48 64 40 32 35 33 38 42 43 44 43 41 36 36 37 41 38 46 54 50 52 48 56 42 42 41 41 42 40 38 62 59 74 82 80 55 49 61 55 33 33 32 31
47 47 40 40 39 35 41 38 35 35 37 40 44 33 36 37 32 38 36 38 38 53 62 52 59 52 55 41 43 47 41 42 41 40 48 50 55 36 31 27 28 33 34 34 31
55 46 43 56 44 43 42 37 38 36 36 33 34 36 40 38 34 33 32 31 34 46 58 59 58 53 68 43 44 49 36 37 38 38 37 46 37 28 32 37 36 36 34 32 30
Wind_Speed
10 12 15 26 22 21 18 17 14 14 16 16 15 14 14 12 10 9 14 13 12 12 6 4 1 4 4 3 4 3 3 5 2 3 3 4 5 3 2 7 3 3 5 4 2
13 13 16 26 21 19 17 16 16 16 16 15 13 17 13 10 16 21 13 16 10 6 4 1 4 3 3 2 3 3 3 4 5 5 2 0 4 3 4 8 10 8 3 2 2
20 19 22 22 17 16 15 17 16 14 14 11 10 4 1 2 2 9 17 10 6 5 4 2 1 2 5 3 4 3 3 3 3 5 4 4 6 2 6 9 11 9 9 10 7
19 22 19 18 15 14 15 15 11 10 9 8 5 3 3 2 2 11 17 11 7 5 3 1 2 2 3 3 2 2 3 2 1 3 3 5 7 7 11 12 3 5 5 7 10
23 21 21 19 17 14 12 9 7 6 6 6 5 1 1 8 7 14 17 14 7 4 5 3 2 1 4 5 2 3 2 2 2 2 5 8 10 11 18 13 12 10 10 12 13
23 23 22 19 15 12 8 7 6 5 5 4 1 4 2 6 8 13 14 12 13 8 9 6 5 6 7 4 3 2 1 1 1 3 6 7 12 3 8 2 7 11 14 13 13
26 22 20 17 14 12 10 8 9 11 12 11 14 18 21 7 8 12 10 12 12 10 6 9 3 2 1 4 2 2 3 2 3 4 3 9 13 14 14 9 10 12 13 13 15
21 19 15 12 12 12 11 11 11 8 7 8 8 6 6 5 6 12 11 9 11 9 8 5 7 7 5 3 3 2 2 4 6 3 2 5 13 10 2 6 13 14 15 16 19
16 15 13 12 14 13 10 10 11 10 8 4 4 1 6 4 6 12 10 7 5 7 6 4 4 4 2 1 2 4 6 6 3 3 4 5 16 9 5 10 16 17 17 17 17
10 10 11 13 13 8 9 13 11 11 5 4 8 5 6 5 7 11 7 8 3 4 1 3 2 3 4 4 1 4 8 5 9 3 9 17 25 20 17 19 21 21 21 21 20
6 6 6 5 4 4 6 2 4 4 22 9 7 9 5 8 6 11 10 8 1 2 2 4 3 5 6 5 4 3 5 9 11 7 13 12 23 23 22 21 20 18 17 17 18
7 9 8 6 3 5 5 4 3 4 12 13 11 9 7 6 2 18 15 3 2 2 2 2 4 5 3 3 4 5 8 9 9 3 11 16 25 24 10 7 9 13 14 14 15
8 5 5 7 11 18 15 8 5 2 3 6 5 6 4 9 6 12 12 3 6 7 7 3 6 2 2 3 6 4 6 7 8 17 11 15 11 1 7 7 7 9 13 10 11
10 8 1 4 4 3 5 4 3 3 3 8 6 5 5 3 4 8 8 4 4 4 5 5 2 2 2 2 4 3 3 8 11 10 5 11 6 9 5 6 12 14 14 9 7
5 7 11 4 4 4 1 2 2 2 3 6 4 4 5 4 4 8 5 2 5 4 2 2 1 1 2 2 3 3 7 9 6 6 6 4 3 4 10 14 15 14 11 7 3
7 6 4 5 9 4 3 1 1 3 2 2 3 5 1 6 3 6 3 4 2 1 7 4 1 2 4 1 3 9 7 7 3 1 2 5 4 5 9 14 15 13 11 4 1
7 9 9 6 3 3 1 3 4 3 1 2 3 3 3 6 3 6 3 5 3 3 1 1 2 2 2 4 1 8 4 3 2 1 2 2 5 10 12 14 12 12 8 7 5
6 6 11 9 6 4 2 1 5 2 3 1 1 2 2 6 3 6 2 1 5 3 3 2 3 1 4 3 3 3 1 1 4 4 5 2 5 1 10 7 10 8 6 9 6
2 3 4 10 5 3 3 4 2 3 2 3 2 3 2 2 3 2 4 2 3 5 3 4 1 3 2 1 1 0 1 2 3 2 3 4 6 8 3 10 11 11 11 10 9
1 2 3 8 3 2 2 4 2 2 4 2 1 1 0 2 3 2 2 2 1 2 4 2 4 1 3 2 2 2 2 1 2 3 5 4 6 4 6 9 11 10 13 16 14
2 2 4 4 2 1 3 4 4 2 3 2 1 2 1 2 1 1 0 2 1 2 2 0 1 2 1 6 5 3 2 3 2 3 3 5 5 4 4 4 9 11 16 17 16
2 1 5 2 2 3 3 3 2 3 0 0 2 2 1 1 1 0 1 2 2 2 2 2 3 5 2 4 2 4 5 8 3 3 3 3 7 2 3 3 7 15 16 16 15
0 2 4 1 3 4 3 3 1 2 2 1 0 2 1 1 2 2 2 2 5 4 1 3 3 4 4 3 4 6 9 10 6 2 7 3 5 1 3 10 16 15 16 15 14
1 1 3 3 2 4 3 3 3 1 1 1 1 2 2 2 2 2 2 2 4 4 0 1 4 9 7 5 1 6 8 13 11 5 5 12 10 15 15 12 17 16 14 13 13
4 3 3 2 4 5 2 2 2 2 1 2 2 6 2 3 3 3 2 4 4 5 4 3 6 9 14 18 17 19 18 16 18 18 7 1 7 14 15 12 9 13 15 16 14
2 0 1 2 0 1 1 2 3 3 4 3 4 1 6 4 3 6 3 4 5 6 5 3 4 9 17 12 7 13 15 18 21 23 25 26 29 21 14 14 13 15 16 15 14
3 1 3 2 1 3 1 2 3 2 5 3 4 4 7 9 7 8 8 9 6 5 9 4 4 5 6 5 15 14 9 20 12 11 16 19 19 14 14 16 17 18 16 14 14
Wind_Direction
147 142 138 142 139 138 143 140 140 139 134 133 132 119 105 103 78 54 47 343 327 330 348 306 70 64 59 63 11 315 238 217 153 211 81 131 223 161 329 268 210 207 287 54 97
137 142 139 134 136 139 141 139 142 136 135 131 133 124 109 102 96 61 0 348 345 1 18 109 94 96 72 46 16 325 261 52 19 23 1 259 271 329 287 233 242 231 216 197 201
137 132 134 134 131 137 136 139 140 135 142 137 134 138 36 2 184 22 353 11 19 24 356 17 64 61 84 51 13 7 351 105 66 24 341 299 269 240 273 263 252 260 234 216 242
124 127 128 126 131 130 134 139 138 139 146 153 148 75 51 289 117 348 354 7 25 15 326 14 230 124 106 110 52 145 70 17 67 26 317 291 325 268 250 261 312 291 274 249 247
132 124 119 122 125 130 132 135 142 149 156 158 165 0 57 78 40 341 351 359 2 7 42 41 85 105 117 100 98 82 124 67 36 314 311 311 274 278 274 267 265 253 268 262 263
106 110 112 112 111 107 111 121 115 131 151 175 184 77 205 83 347 351 357 16 23 45 49 46 70 73 86 68 5 66 94 32 321 313 297 303 288 286 254 289 279 266 262 259 257
103 100 101 97 91 90 93 98 103 106 107 96 101 97 67 65 4 7 12 26 29 36 70 41 21 35 104 116 103 114 258 229 238 317 293 315 272 231 256 247 267 257 252 248 247
98 95 91 82 85 88 87 106 105 107 90 77 82 75 69 3 36 22 20 41 32 42 70 36 46 82 23 126 172 245 254 286 125 327 113 320 279 301 123 256 260 255 252 247 244
91 81 73 84 91 79 85 95 97 80 68 61 38 77 84 356 24 6 18 9 7 40 47 37 61 66 156 321 247 209 279 265 287 78 316 246 292 298 305 258 268 268 266 262 260
84 74 76 109 106 60 45 84 80 41 11 68 41 110 41 17 352 345 353 1 2 317 185 24 60 87 39 45 341 315 298 312 296 40 317 290 276 286 291 287 283 282 280 277 272
71 61 66 122 197 334 357 216 202 51 45 58 39 80 56 345 5 17 349 332 332 50 31 28 84 70 53 35 14 343 295 292 300 355 322 293 297 296 296 286 284 287 290 292 288
71 68 68 57 276 283 68 60 35 96 77 51 60 73 47 345 337 18 3 357 354 70 332 80 83 64 54 19 354 326 310 318 312 346 319 304 304 294 291 319 325 323 315 309 309
65 88 105 51 55 64 83 76 100 352 90 46 39 27 356 353 36 4 4 1 26 53 48 75 77 75 356 16 352 331 320 336 306 320 276 324 287 4 82 350 357 356 341 319 317
56 57 202 356 59 51 49 36 56 345 102 16 13 40 349 330 63 11 10 358 48 62 47 63 82 19 14 18 342 290 4 317 315 341 307 15 297 312 324 359 14 360 3 359 8
55 50 55 65 104 57 28 32 359 284 79 6 24 330 351 48 332 34 352 36 52 79 254 78 102 343 306 20 332 335 324 310 320 299 349 141 269 269 350 359 353 1 13 28 29
45 32 38 39 58 66 52 25 285 45 66 47 351 354 10 39 45 333 37 67 23 342 57 89 86 339 15 336 311 315 300 280 302 293 269 112 4 289 17 354 344 352 5 25 3
57 50 59 66 66 22 43 232 34 48 140 10 24 7 91 26 44 15 36 47 27 358 350 167 136 98 337 291 246 354 14 324 316 285 316 88 288 266 346 354 340 326 346 337 301
53 39 52 57 27 11 266 67 67 51 80 109 353 4 64 356 47 0 339 86 63 349 295 309 217 23 3 28 344 18 89 357 299 314 321 164 236 261 352 13 26 24 336 328 322
50 33 43 353 12 23 250 66 60 71 78 139 116 48 98 85 339 353 25 40 29 360 330 320 177 127 38 18 26 112 7 21 301 174 283 261 269 265 139 19 26 35 36 18 347
151 132 29 356 16 275 63 87 95 94 133 180 102 317 158 17 30 10 38 57 124 1 337 39 300 182 109 201 138 222 90 239 159 293 280 261 278 247 326 341 354 10 2 342 328
231 213 354 20 74 66 72 75 105 89 344 324 150 153 158 175 270 330 97 155 248 154 329 224 232 121 226 202 190 158 212 224 289 245 280 307 279 200 241 288 327 329 326 332 328
271 10 353 95 43 49 59 50 14 127 166 354 316 352 331 140 264 177 262 220 169 191 335 56 318 267 279 99 289 233 230 218 245 173 238 296 272 254 229 307 336 328 327 326 322
39 54 346 354 58 79 118 98 64 153 186 208 331 328 334 300 296 230 203 125 184 205 279 132 209 290 181 183 193 230 220 224 237 249 221 238 258 140 223 328 331 322 319 319 323
281 88 60 66 33 84 121 94 117 122 128 333 5 227 230 242 238 298 242 172 193 221 118 197 259 245 270 329 303 234 213 214 209 216 240 229 280 269 307 313 317 325 322 320 319
3 53 354 38 64 92 111 128 133 161 179 207 206 242 270 291 253 245 219 182 192 193 205 253 267 259 270 277 276 267 259 234 224 230 238 306 246 283 297 316 313 313 321 326 325
20 231 162 72 10 214 158 147 179 163 194 180 229 215 216 244 276 304 268 236 250 179 204 203 274 299 290 265 267 267 256 244 246 244 245 258 273 288 289 311 310 318 320 318 317
36 51 287 150 161 280 47 165 194 192 191 244 227 254 247 264 289 294 275 269 278 201 205 212 276 318 270 288 303 277 256 220 223 233 238 247 257 295 314 317 321 314 315 312 313